TimeCST,TemperatureF,Dew PointF,Humidity,Sea Level PressureIn,VisibilityMPH,Wind Direction,Wind SpeedMPH,Gust SpeedMPH,PrecipitationIn,Events,Conditions,WindDirDegrees,DateUTC
12:52 AM,35.1,30.9,85,29.70,-9999.0,NW,32.2,40.3,N/A,,Unknown,310,2014-01-18 06:52:00
1:52 AM,35.1,30.0,82,29.72,-9999.0,NW,29.9,39.1,N/A,,Unknown,320,2014-01-18 07:52:00
2:52 AM,36.0,30.0,79,29.75,-9999.0,NNW,40.3,48.3,0.01,,Unknown,330,2014-01-18 08:52:00
3:52 AM,34.0,28.9,82,29.81,-9999.0,NNW,32.2,41.4,N/A,,Unknown,330,2014-01-18 09:52:00
4:52 AM,34.0,28.9,82,29.86,-9999.0,NNW,25.3,36.8,N/A,,Unknown,340,2014-01-18 10:52:00
5:52 AM,32.0,28.9,88,29.92,-9999.0,NNW,20.7,-,N/A,,Unknown,340,2014-01-18 11:52:00
6:52 AM,32.0,27.0,82,29.96,-9999.0,North,19.6,-,N/A,,Unknown,350,2014-01-18 12:52:00
7:52 AM,30.9,25.0,79,29.99,-9999.0,NNW,23.0,29.9,N/A,,Unknown,340,2014-01-18 13:52:00
8:52 AM,28.9,24.1,82,30.03,-9999.0,NNW,21.9,-,N/A,,Unknown,330,2014-01-18 14:52:00
9:52 AM,28.9,23.0,78,30.06,-9999.0,NNW,19.6,-,N/A,,Unknown,330,2014-01-18 15:52:00
10:52 AM,28.9,23.0,78,30.08,-9999.0,NW,20.7,28.8,N/A,,Unknown,320,2014-01-18 16:52:00
11:52 AM,30.0,25.0,82,30.06,-9999.0,NW,17.3,-,N/A,,Unknown,310,2014-01-18 17:52:00
12:52 PM,32.0,26.1,79,30.04,-9999.0,WNW,16.1,-,N/A,,Unknown,290,2014-01-18 18:52:00
1:52 PM,33.1,26.1,75,30.01,-9999.0,WNW,17.3,-,N/A,,Unknown,290,2014-01-18 19:52:00
2:52 PM,34.0,28.0,79,29.97,-9999.0,West,21.9,-,N/A,,Unknown,280,2014-01-18 20:52:00
3:52 PM,34.0,27.0,75,29.96,-9999.0,West,16.1,-,N/A,,Unknown,270,2014-01-18 21:52:00
4:52 PM,34.0,26.1,73,29.91,-9999.0,WSW,10.4,-,N/A,,Unknown,240,2014-01-18 22:52:00
5:52 PM,32.0,26.1,79,29.88,-9999.0,WSW,13.8,-,N/A,,Unknown,250,2014-01-18 23:52:00
6:52 PM,33.1,26.1,75,29.85,-9999.0,WSW,12.7,-,N/A,,Unknown,250,2014-01-19 00:52:00
7:52 PM,32.0,26.1,79,29.79,-9999.0,WSW,15.0,-,N/A,,Unknown,240,2014-01-19 01:52:00
8:52 PM,33.1,26.1,75,29.75,-9999.0,West,16.1,-,N/A,,Unknown,260,2014-01-19 02:52:00
9:52 PM,30.9,25.0,79,29.73,-9999.0,West,12.7,-,N/A,,Unknown,260,2014-01-19 03:52:00
10:52 PM,32.0,25.0,75,29.70,-9999.0,West,13.8,-,N/A,,Unknown,280,2014-01-19 04:52:00
11:52 PM,37.9,28.0,68,29.67,-9999.0,WNW,24.2,29.9,N/A,,Unknown,290,2014-01-19 05:52:00